Time,TemperatureF,DewpointF,PressureIn,WindDirection,WindDirectionDegrees,WindSpeedMPH,WindSpeedGustMPH,Humidity,HourlyPrecipIn,Conditions,Clouds,dailyrainin,SoftwareType,DateUTC
2013-09-02 00:11:00,64.0,63.0,29.62,SSE,157,1.0,1.0,97,0.00,,,0.00,TxWx,2013-09-02 04:11:00,
2013-09-02 00:16:00,64.0,63.0,29.62,ESE,112,1.0,1.0,97,0.00,,,0.00,TxWx,2013-09-02 04:16:00,
2013-09-02 00:21:00,64.0,63.0,29.62,SSW,202,0.0,0.0,97,0.00,,,0.00,TxWx,2013-09-02 04:21:00,
2013-09-02 00:26:00,64.0,63.0,29.63,SSE,157,0.0,1.0,97,0.00,,,0.00,TxWx,2013-09-02 04:26:00,
2013-09-02 00:31:00,64.0,63.0,29.63,South,180,0.0,0.0,97,0.00,,,0.00,TxWx,2013-09-02 04:31:00,
2013-09-02 00:36:00,64.0,63.0,29.63,South,180,0.0,0.0,97,0.00,,,0.00,TxWx,2013-09-02 04:36:00,
2013-09-02 00:42:00,64.0,63.0,29.63,SSW,202,0.0,0.0,97,0.00,,,0.00,TxWx,2013-09-02 04:42:00,
2013-09-02 00:47:00,64.0,63.0,29.63,South,180,0.0,0.0,97,0.00,,,0.00,TxWx,2013-09-02 04:47:00,
2013-09-02 00:52:00,64.0,63.0,29.64,ESE,112,0.0,0.0,97,0.00,,,0.00,TxWx,2013-09-02 04:52:00,
2013-09-02 00:57:00,64.0,63.0,29.64,South,180,0.0,0.0,97,0.00,,,0.00,TxWx,2013-09-02 04:57:00,
2013-09-02 01:02:00,64.0,63.0,29.64,SW,225,0.0,0.0,97,0.00,,,0.00,TxWx,2013-09-02 05:02:00,
2013-09-02 01:07:00,64.0,63.0,29.64,SSW,202,1.0,1.0,97,0.00,,,0.00,TxWx,2013-09-02 05:07:00,
2013-09-02 01:12:00,64.0,63.0,29.63,South,180,0.0,1.0,97,0.00,,,0.00,TxWx,2013-09-02 05:12:00,
2013-09-02 01:17:00,64.0,63.0,29.63,SSE,157,1.0,1.0,98,0.00,,,0.00,TxWx,2013-09-02 05:17:00,
2013-09-02 01:22:00,64.0,63.0,29.63,South,180,0.0,0.0,98,0.00,,,0.00,TxWx,2013-09-02 05:22:00,
2013-09-02 01:27:00,64.0,63.0,29.62,NNE,22,0.0,0.0,98,0.00,,,0.00,TxWx,2013-09-02 05:27:00,
2013-09-02 01:32:00,64.0,63.0,29.62,SSW,202,0.0,0.0,98,0.00,,,0.00,TxWx,2013-09-02 05:32:00,
2013-09-02 01:37:00,64.0,63.0,29.62,SSW,202,0.0,0.0,98,0.00,,,0.00,TxWx,2013-09-02 05:37:00,
2013-09-02 01:42:00,64.0,63.0,29.62,South,180,0.0,0.0,98,0.00,,,0.00,TxWx,2013-09-02 05:42:00,
2013-09-02 01:47:00,64.0,63.0,29.62,South,180,0.0,0.0,98,0.00,,,0.00,TxWx,2013-09-02 05:47:00,
2013-09-02 01:53:00,64.0,63.0,29.61,SSW,202,0.0,0.0,98,0.00,,,0.00,TxWx,2013-09-02 05:53:00,
2013-09-02 01:58:00,64.0,63.0,29.61,East,90,0.0,0.0,98,0.00,,,0.00,TxWx,2013-09-02 05:58:00,
2013-09-02 02:03:00,64.0,63.0,29.60,ESE,112,0.0,0.0,98,0.00,,,0.00,TxWx,2013-09-02 06:03:00,
2013-09-02 02:08:00,64.0,63.0,29.60,SSE,157,0.0,0.0,98,0.00,,,0.00,TxWx,2013-09-02 06:08:00,
2013-09-02 02:13:00,64.0,63.0,29.60,South,180,0.0,0.0,98,0.00,,,0.00,TxWx,2013-09-02 06:13:00,
2013-09-02 02:18:00,64.0,63.0,29.59,SE,135,0.0,0.0,98,0.00,,,0.00,TxWx,2013-09-02 06:18:00,
2013-09-02 02:23:00,64.0,63.0,29.60,South,180,0.0,0.0,98,0.00,,,0.00,TxWx,2013-09-02 06:23:00,
2013-09-02 02:28:00,64.0,63.0,29.60,SSW,202,0.0,0.0,98,0.00,,,0.00,TxWx,2013-09-02 06:28:00,
2013-09-02 02:33:00,63.0,63.0,29.60,South,180,0.0,0.0,98,0.00,,,0.00,TxWx,2013-09-02 06:33:00,
2013-09-02 02:38:00,63.0,62.0,29.60,South,180,0.0,0.0,98,0.00,,,0.00,TxWx,2013-09-02 06:38:00,
2013-09-02 02:43:00,63.0,62.0,29.59,South,180,0.0,0.0,98,0.00,,,0.00,TxWx,2013-09-02 06:43:00,
2013-09-02 02:48:00,64.0,63.0,29.59,SSE,157,0.0,0.0,98,0.00,,,0.00,TxWx,2013-09-02 06:48:00,
2013-09-02 02:53:00,64.0,63.0,29.59,SSE,157,0.0,0.0,98,0.00,,,0.00,TxWx,2013-09-02 06:53:00,
2013-09-02 02:58:00,64.0,63.0,29.59,South,180,0.0,0.0,98,0.00,,,0.00,TxWx,2013-09-02 06:58:00,
2013-09-02 03:03:00,64.0,63.0,29.59,ESE,112,0.0,0.0,98,0.00,,,0.00,TxWx,2013-09-02 07:03:00,
2013-09-02 03:08:00,64.0,63.0,29.59,East,90,0.0,0.0,98,0.00,,,0.00,TxWx,2013-09-02 07:08:00,
2013-09-02 03:13:00,64.0,63.0,29.58,East,90,0.0,0.0,98,0.00,,,0.00,TxWx,2013-09-02 07:13:00,
2013-09-02 03:18:00,64.0,63.0,29.57,East,90,0.0,0.0,98,0.00,,,0.00,TxWx,2013-09-02 07:18:00,
2013-09-02 03:24:00,64.0,64.0,29.57,SSE,157,0.0,0.0,99,0.00,,,0.00,TxWx,2013-09-02 07:24:00,
2013-09-02 03:29:00,64.0,64.0,29.57,SE,135,0.0,0.0,99,0.00,,,0.00,TxWx,2013-09-02 07:29:00,
2013-09-02 03:34:00,64.0,64.0,29.58,West,270,0.0,0.0,99,0.00,,,0.00,TxWx,2013-09-02 07:34:00,
2013-09-02 03:39:00,64.0,64.0,29.59,West,270,6.0,7.0,99,0.00,,,0.00,TxWx,2013-09-02 07:39:00,
2013-09-02 03:44:00,64.0,64.0,29.59,SW,225,2.0,3.0,99,0.00,,,0.02,TxWx,2013-09-02 07:44:00,
2013-09-02 03:49:00,63.0,63.0,29.59,WNW,292,1.0,2.0,99,0.00,,,0.02,TxWx,2013-09-02 07:49:00,
2013-09-02 03:54:00,63.0,63.0,29.58,SSW,202,0.0,0.0,99,0.60,,,0.06,TxWx,2013-09-02 07:54:00,
2013-09-02 03:59:00,63.0,63.0,29.58,South,180,0.0,0.0,99,0.60,,,0.06,TxWx,2013-09-02 07:59:00,
2013-09-02 04:04:00,63.0,63.0,29.58,SSW,202,0.0,1.0,99,0.60,,,0.06,TxWx,2013-09-02 08:04:00,
2013-09-02 04:09:00,63.0,63.0,29.57,East,90,2.0,3.0,99,0.60,,,0.06,TxWx,2013-09-02 08:09:00,
2013-09-02 04:14:00,63.0,63.0,29.57,SE,135,3.0,3.0,99,0.00,,,0.06,TxWx,2013-09-02 08:14:00,
2013-09-02 04:19:00,63.0,63.0,29.56,SE,135,3.0,3.0,99,0.00,,,0.06,TxWx,2013-09-02 08:19:00,
2013-09-02 04:24:00,63.0,62.0,29.56,ENE,67,1.0,2.0,99,0.00,,,0.06,TxWx,2013-09-02 08:24:00,
2013-09-02 04:29:00,62.0,62.0,29.56,ESE,112,3.0,4.0,99,0.00,,,0.06,TxWx,2013-09-02 08:29:00,
2013-09-02 04:35:00,62.0,62.0,29.57,SSW,202,0.0,1.0,99,0.00,,,0.06,TxWx,2013-09-02 08:35:00,
2013-09-02 04:39:00,62.0,62.0,29.57,NNE,22,0.0,0.0,99,0.00,,,0.06,TxWx,2013-09-02 08:39:00,
2013-09-02 04:45:00,62.0,62.0,29.57,SSW,202,0.0,0.0,99,0.00,,,0.06,TxWx,2013-09-02 08:45:00,
2013-09-02 04:50:00,62.0,62.0,29.57,SE,135,1.0,2.0,99,0.00,,,0.06,TxWx,2013-09-02 08:50:00,
2013-09-02 04:55:00,62.0,62.0,29.57,WNW,292,2.0,2.0,99,0.00,,,0.06,TxWx,2013-09-02 08:55:00,
2013-09-02 05:00:00,62.0,62.0,29.58,West,270,1.0,2.0,99,0.00,,,0.06,TxWx,2013-09-02 09:00:00,
2013-09-02 05:05:00,62.0,62.0,29.58,West,270,2.0,2.0,99,0.00,,,0.06,TxWx,2013-09-02 09:05:00,
2013-09-02 05:10:00,62.0,62.0,29.58,South,180,0.0,0.0,99,0.00,,,0.06,TxWx,2013-09-02 09:10:00,
2013-09-02 05:15:00,62.0,62.0,29.58,SSE,157,3.0,3.0,99,0.00,,,0.06,TxWx,2013-09-02 09:15:00,
2013-09-02 05:20:00,62.0,62.0,29.58,South,180,0.0,0.0,99,0.00,,,0.06,TxWx,2013-09-02 09:20:00,
2013-09-02 05:25:00,62.0,62.0,29.59,SW,225,0.0,0.0,99,0.00,,,0.06,TxWx,2013-09-02 09:25:00,
2013-09-02 05:30:00,62.0,62.0,29.59,SSE,157,0.0,0.0,99,0.00,,,0.06,TxWx,2013-09-02 09:30:00,
2013-09-02 05:35:00,62.0,62.0,29.59,ESE,112,1.0,2.0,100,0.00,,,0.06,TxWx,2013-09-02 09:35:00,
2013-09-02 05:40:00,62.0,62.0,29.59,SE,135,0.0,0.0,100,0.00,,,0.06,TxWx,2013-09-02 09:40:00,
2013-09-02 05:45:00,62.0,62.0,29.59,SSW,202,0.0,0.0,100,0.00,,,0.07,TxWx,2013-09-02 09:45:00,
2013-09-02 05:50:00,62.0,62.0,29.60,SSW,202,0.0,1.0,100,0.00,,,0.07,TxWx,2013-09-02 09:50:00,
2013-09-02 05:55:00,62.0,62.0,29.60,SSW,202,0.0,0.0,100,0.60,,,0.07,TxWx,2013-09-02 09:55:00,
2013-09-02 06:00:00,62.0,62.0,29.60,SE,135,1.0,1.0,100,0.60,,,0.07,TxWx,2013-09-02 10:00:00,
2013-09-02 06:05:00,62.0,62.0,29.60,ESE,112,0.0,0.0,100,0.00,,,0.07,TxWx,2013-09-02 10:05:00,
2013-09-02 06:11:00,62.0,62.0,29.60,SW,225,0.0,0.0,100,0.00,,,0.07,TxWx,2013-09-02 10:11:00,
2013-09-02 06:16:00,62.0,62.0,29.61,SSW,202,1.0,1.0,100,0.00,,,0.07,TxWx,2013-09-02 10:16:00,
2013-09-02 06:21:00,62.0,62.0,29.61,South,180,0.0,1.0,100,0.00,,,0.07,TxWx,2013-09-02 10:21:00,
2013-09-02 06:26:00,62.0,62.0,29.61,South,180,0.0,0.0,100,0.00,,,0.07,TxWx,2013-09-02 10:26:00,
2013-09-02 06:31:00,62.0,62.0,29.61,South,180,1.0,1.0,100,0.00,,,0.07,TxWx,2013-09-02 10:31:00,
2013-09-02 06:36:00,62.0,62.0,29.61,SSE,157,1.0,1.0,100,0.00,,,0.07,TxWx,2013-09-02 10:36:00,
2013-09-02 06:41:00,62.0,62.0,29.61,South,180,0.0,0.0,100,0.00,,,0.07,TxWx,2013-09-02 10:41:00,
2013-09-02 06:46:00,62.0,62.0,29.61,WSW,247,0.0,0.0,100,0.00,,,0.07,TxWx,2013-09-02 10:46:00,
2013-09-02 06:51:00,62.0,62.0,29.60,WNW,292,1.0,1.0,100,0.00,,,0.07,TxWx,2013-09-02 10:51:00,
2013-09-02 06:56:00,63.0,63.0,29.60,SE,135,2.0,2.0,100,0.00,,,0.07,TxWx,2013-09-02 10:56:00,
2013-09-02 07:01:00,63.0,63.0,29.60,South,180,0.0,0.0,100,0.00,,,0.07,TxWx,2013-09-02 11:01:00,
2013-09-02 07:06:00,63.0,63.0,29.60,SW,225,1.0,1.0,100,0.00,,,0.07,TxWx,2013-09-02 11:06:00,
2013-09-02 07:11:00,63.0,63.0,29.59,SSE,157,1.0,1.0,100,0.00,,,0.07,TxWx,2013-09-02 11:11:00,
2013-09-02 07:16:00,63.0,63.0,29.59,WNW,292,1.0,1.0,100,0.00,,,0.07,TxWx,2013-09-02 11:16:00,
2013-09-02 07:21:00,63.0,63.0,29.59,WNW,292,1.0,2.0,100,0.00,,,0.07,TxWx,2013-09-02 11:21:00,
2013-09-02 07:26:00,63.0,63.0,29.59,ESE,112,1.0,1.0,100,0.00,,,0.07,TxWx,2013-09-02 11:26:00,
2013-09-02 07:31:00,63.0,63.0,29.59,WNW,292,3.0,3.0,100,0.00,,,0.07,TxWx,2013-09-02 11:31:00,
2013-09-02 07:37:00,63.0,63.0,29.58,SW,225,0.0,1.0,100,0.00,,,0.07,TxWx,2013-09-02 11:37:00,
2013-09-02 07:42:00,63.0,63.0,29.58,SSW,202,0.0,0.0,100,0.00,,,0.07,TxWx,2013-09-02 11:42:00,
2013-09-02 07:47:00,63.0,63.0,29.58,South,180,0.0,0.0,100,0.00,,,0.07,TxWx,2013-09-02 11:47:00,
2013-09-02 07:52:00,63.0,63.0,29.57,SSE,157,0.0,0.0,100,0.00,,,0.07,TxWx,2013-09-02 11:52:00,
2013-09-02 07:57:00,63.0,63.0,29.57,South,180,0.0,0.0,100,0.00,,,0.07,TxWx,2013-09-02 11:57:00,
2013-09-02 08:02:00,63.0,63.0,29.58,SSW,202,0.0,0.0,100,0.00,,,0.07,TxWx,2013-09-02 12:02:00,
2013-09-02 08:07:00,63.0,63.0,29.57,SSW,202,0.0,1.0,100,0.00,,,0.07,TxWx,2013-09-02 12:07:00,
2013-09-02 08:12:00,63.0,63.0,29.58,South,180,0.0,0.0,100,0.00,,,0.07,TxWx,2013-09-02 12:12:00,
2013-09-02 08:17:00,64.0,64.0,29.57,SE,135,1.0,1.0,100,0.00,,,0.07,TxWx,2013-09-02 12:17:00,
2013-09-02 08:22:00,64.0,64.0,29.57,SE,135,1.0,2.0,100,0.00,,,0.07,TxWx,2013-09-02 12:22:00,
2013-09-02 08:27:00,64.0,64.0,29.58,SSE,157,1.0,2.0,100,0.00,,,0.07,TxWx,2013-09-02 12:27:00,
2013-09-02 08:32:00,64.0,64.0,29.58,SSE,157,1.0,1.0,100,0.00,,,0.07,TxWx,2013-09-02 12:32:00,
2013-09-02 08:37:00,64.0,64.0,29.58,SSE,157,1.0,1.0,100,0.00,,,0.07,TxWx,2013-09-02 12:37:00,
2013-09-02 08:42:00,64.0,64.0,29.58,SE,135,1.0,2.0,100,0.00,,,0.07,TxWx,2013-09-02 12:42:00,
2013-09-02 08:47:00,64.0,64.0,29.58,ESE,112,1.0,2.0,100,0.00,,,0.07,TxWx,2013-09-02 12:47:00,
2013-09-02 08:52:00,64.0,64.0,29.58,SE,135,2.0,3.0,100,0.00,,,0.07,TxWx,2013-09-02 12:52:00,
2013-09-02 08:57:00,64.0,64.0,29.58,ESE,112,3.0,4.0,100,0.00,,,0.07,TxWx,2013-09-02 12:57:00,
2013-09-02 09:02:00,65.0,65.0,29.58,SE,135,1.0,1.0,100,0.00,,,0.07,TxWx,2013-09-02 13:02:00,
2013-09-02 09:07:00,65.0,65.0,29.58,ESE,112,3.0,4.0,100,0.00,,,0.07,TxWx,2013-09-02 13:07:00,
2013-09-02 09:12:00,65.0,65.0,29.58,South,180,1.0,1.0,100,0.00,,,0.07,TxWx,2013-09-02 13:12:00,
2013-09-02 09:17:00,65.0,65.0,29.58,SE,135,2.0,2.0,100,0.00,,,0.07,TxWx,2013-09-02 13:17:00,
2013-09-02 09:22:00,65.0,65.0,29.59,ESE,112,2.0,2.0,100,0.00,,,0.07,TxWx,2013-09-02 13:22:00,
2013-09-02 09:27:00,66.0,66.0,29.59,SE,135,1.0,2.0,100,0.00,,,0.07,TxWx,2013-09-02 13:27:00,
2013-09-02 09:32:00,66.0,66.0,29.59,ESE,112,1.0,1.0,100,0.00,,,0.07,TxWx,2013-09-02 13:32:00,
2013-09-02 09:38:00,66.0,66.0,29.59,SE,135,1.0,2.0,100,0.00,,,0.07,TxWx,2013-09-02 13:38:00,
2013-09-02 09:43:00,66.0,66.0,29.59,SE,135,2.0,2.0,100,0.00,,,0.07,TxWx,2013-09-02 13:43:00,
2013-09-02 09:48:00,66.0,66.0,29.59,SE,135,2.0,3.0,100,0.00,,,0.07,TxWx,2013-09-02 13:48:00,
2013-09-02 09:53:00,66.0,66.0,29.59,SE,135,0.0,0.0,100,0.00,,,0.07,TxWx,2013-09-02 13:53:00,
2013-09-02 09:58:00,67.0,67.0,29.59,South,180,1.0,1.0,100,0.00,,,0.07,TxWx,2013-09-02 13:58:00,
2013-09-02 10:03:00,67.0,67.0,29.58,SE,135,2.0,3.0,100,0.00,,,0.07,TxWx,2013-09-02 14:03:00,
2013-09-02 10:08:00,67.0,67.0,29.58,ESE,112,3.0,3.0,100,0.00,,,0.07,TxWx,2013-09-02 14:08:00,
2013-09-02 10:13:00,67.0,67.0,29.58,SSE,157,1.0,1.0,100,0.00,,,0.07,TxWx,2013-09-02 14:13:00,
2013-09-02 10:18:00,67.0,67.0,29.58,SSW,202,1.0,3.0,100,0.00,,,0.07,TxWx,2013-09-02 14:18:00,
2013-09-02 10:23:00,67.0,67.0,29.58,SE,135,1.0,1.0,100,0.00,,,0.07,TxWx,2013-09-02 14:23:00,
2013-09-02 10:28:00,68.0,68.0,29.58,West,270,2.0,2.0,100,0.00,,,0.07,TxWx,2013-09-02 14:28:00,
2013-09-02 10:33:00,68.0,68.0,29.58,SE,135,1.0,3.0,100,0.00,,,0.07,TxWx,2013-09-02 14:33:00,
2013-09-02 10:38:00,68.0,68.0,29.58,SE,135,2.0,2.0,100,0.00,,,0.07,TxWx,2013-09-02 14:38:00,
2013-09-02 10:43:00,68.0,68.0,29.58,ESE,112,2.0,3.0,100,0.00,,,0.07,TxWx,2013-09-02 14:43:00,
2013-09-02 10:48:00,68.0,68.0,29.58,South,180,1.0,1.0,100,0.00,,,0.07,TxWx,2013-09-02 14:48:00,
2013-09-02 10:54:00,69.0,69.0,29.58,WSW,247,3.0,3.0,100,0.00,,,0.07,TxWx,2013-09-02 14:54:00,
2013-09-02 10:59:00,69.0,69.0,29.58,SE,135,3.0,3.0,100,0.00,,,0.07,TxWx,2013-09-02 14:59:00,
2013-09-02 11:04:00,69.0,69.0,29.58,SE,135,5.0,5.0,100,0.00,,,0.07,TxWx,2013-09-02 15:04:00,
2013-09-02 11:09:00,70.0,70.0,29.58,SE,135,2.0,3.0,99,0.00,,,0.07,TxWx,2013-09-02 15:09:00,
2013-09-02 11:14:00,70.0,69.0,29.58,SW,225,3.0,5.0,98,0.00,,,0.07,TxWx,2013-09-02 15:14:00,
2013-09-02 11:19:00,70.0,69.0,29.58,South,180,1.0,2.0,97,0.00,,,0.07,TxWx,2013-09-02 15:19:00,
2013-09-02 11:24:00,70.0,69.0,29.57,SW,225,1.0,2.0,97,0.00,,,0.07,TxWx,2013-09-02 15:24:00,
2013-09-02 11:29:00,71.0,70.0,29.57,SSE,157,3.0,3.0,97,0.00,,,0.07,TxWx,2013-09-02 15:29:00,
2013-09-02 11:34:00,70.0,68.0,29.57,East,90,1.0,1.0,95,0.00,,,0.07,TxWx,2013-09-02 15:34:00,
2013-09-02 11:39:00,70.0,68.0,29.57,South,180,0.0,1.0,94,0.00,,,0.07,TxWx,2013-09-02 15:39:00,
2013-09-02 11:44:00,70.0,68.0,29.57,SSE,157,3.0,3.0,94,0.00,,,0.07,TxWx,2013-09-02 15:44:00,
2013-09-02 11:50:00,70.0,68.0,29.57,South,180,1.0,2.0,93,0.00,,,0.07,TxWx,2013-09-02 15:50:00,
2013-09-02 11:52:00,60.0,59.0,29.50,South,180,1.0,2.0,97,0.00,,,0.37,TxWx,2013-09-02 15:52:00,
2013-09-02 11:53:00,60.0,59.0,29.50,South,180,1.0,2.0,97,0.00,,,0.37,TxWx,2013-09-02 15:53:00,
2013-09-02 11:54:00,60.0,59.0,29.50,SW,225,1.0,1.0,97,0.00,,,0.37,TxWx,2013-09-02 15:54:00,
2013-09-02 11:55:00,70.0,67.0,29.57,SW,225,3.0,3.0,92,0.00,,,0.07,TxWx,2013-09-02 15:55:00,
2013-09-02 11:56:00,60.0,59.0,29.50,WSW,247,1.0,1.0,97,0.00,,,0.37,TxWx,2013-09-02 15:56:00,
2013-09-02 11:57:00,60.0,59.0,29.50,West,270,1.0,1.0,97,0.00,,,0.37,TxWx,2013-09-02 15:57:00,
2013-09-02 11:58:00,60.0,59.0,29.50,SSW,202,0.0,1.0,97,0.00,,,0.37,TxWx,2013-09-02 15:58:00,
2013-09-02 12:00:00,70.0,67.0,29.57,WSW,247,1.0,1.0,92,0.00,,,0.07,TxWx,2013-09-02 16:00:00,
2013-09-02 12:01:00,60.0,59.0,29.50,West,270,1.0,2.0,97,0.00,,,0.37,TxWx,2013-09-02 16:01:00,
2013-09-02 12:04:00,60.0,59.0,29.50,SSW,202,0.0,0.0,97,0.00,,,0.37,TxWx,2013-09-02 16:04:00,
2013-09-02 12:05:00,70.0,67.0,29.57,WSW,247,1.0,2.0,92,0.00,,,0.07,TxWx,2013-09-02 16:05:00,
2013-09-02 12:07:00,60.0,59.0,29.50,SW,225,0.0,0.0,97,0.00,,,0.37,TxWx,2013-09-02 16:07:00,
2013-09-02 12:08:00,60.0,59.0,29.50,WSW,247,0.0,0.0,97,0.00,,,0.37,TxWx,2013-09-02 16:08:00,
2013-09-02 12:10:00,70.0,67.0,29.57,South,180,2.0,2.0,92,0.00,,,0.07,TxWx,2013-09-02 16:10:00,
2013-09-02 12:11:00,60.0,59.0,29.50,SSW,202,0.0,0.0,97,0.00,,,0.37,TxWx,2013-09-02 16:11:00,
2013-09-02 12:15:00,70.0,67.0,29.57,South,180,3.0,4.0,92,0.00,,,0.07,TxWx,2013-09-02 16:15:00,
2013-09-02 12:20:00,70.0,67.0,29.56,SW,225,6.0,6.0,91,0.00,,,0.07,TxWx,2013-09-02 16:20:00,
2013-09-02 12:25:00,70.0,67.0,29.57,ESE,112,2.0,4.0,90,0.00,,,0.07,TxWx,2013-09-02 16:25:00,
2013-09-02 12:30:00,70.0,67.0,29.56,West,270,2.0,3.0,90,0.00,,,0.07,TxWx,2013-09-02 16:30:00,
2013-09-02 12:36:00,70.0,67.0,29.56,SSW,202,3.0,3.0,90,0.00,,,0.07,TxWx,2013-09-02 16:36:00,
2013-09-02 12:41:00,70.0,67.0,29.56,SSW,202,2.0,3.0,90,0.00,,,0.07,TxWx,2013-09-02 16:41:00,
2013-09-02 12:46:00,70.0,67.0,29.56,SW,225,2.0,3.0,90,0.00,,,0.07,TxWx,2013-09-02 16:46:00,
2013-09-02 12:51:00,70.0,67.0,29.55,South,180,0.0,0.0,90,0.00,,,0.07,TxWx,2013-09-02 16:51:00,
2013-09-02 12:56:00,70.0,67.0,29.56,South,180,3.0,3.0,90,0.00,,,0.07,TxWx,2013-09-02 16:56:00,
2013-09-02 13:01:00,70.0,67.0,29.56,South,180,3.0,3.0,89,0.00,,,0.07,TxWx,2013-09-02 17:01:00,
2013-09-02 13:06:00,70.0,67.0,29.56,SSW,202,1.0,1.0,89,0.00,,,0.07,TxWx,2013-09-02 17:06:00,
2013-09-02 13:11:00,70.0,67.0,29.55,South,180,0.0,0.0,90,0.00,,,0.07,TxWx,2013-09-02 17:11:00,
2013-09-02 13:16:00,71.0,68.0,29.55,SSW,202,1.0,2.0,90,0.00,,,0.07,TxWx,2013-09-02 17:16:00,
2013-09-02 13:21:00,71.0,68.0,29.55,SSW,202,1.0,3.0,90,0.00,,,0.07,TxWx,2013-09-02 17:21:00,
2013-09-02 13:26:00,71.0,68.0,29.55,SSW,202,1.0,1.0,90,0.00,,,0.07,TxWx,2013-09-02 17:26:00,
2013-09-02 13:31:00,71.0,68.0,29.55,SE,135,3.0,4.0,89,0.00,,,0.07,TxWx,2013-09-02 17:31:00,
2013-09-02 13:36:00,71.0,67.0,29.55,South,180,0.0,1.0,89,0.00,,,0.07,TxWx,2013-09-02 17:36:00,
2013-09-02 13:41:00,71.0,67.0,29.55,SE,135,3.0,4.0,89,0.00,,,0.07,TxWx,2013-09-02 17:41:00,
2013-09-02 13:46:00,70.0,66.0,29.55,SSE,157,2.0,3.0,88,0.00,,,0.07,TxWx,2013-09-02 17:46:00,
2013-09-02 13:51:00,70.0,66.0,29.55,SSW,202,3.0,3.0,88,0.00,,,0.07,TxWx,2013-09-02 17:51:00,
2013-09-02 13:56:00,71.0,67.0,29.55,SE,135,2.0,3.0,88,0.00,,,0.07,TxWx,2013-09-02 17:56:00,
2013-09-02 14:01:00,71.0,67.0,29.55,SSW,202,3.0,5.0,88,0.00,,,0.07,TxWx,2013-09-02 18:01:00,
2013-09-02 14:07:00,71.0,67.0,29.54,SSE,157,2.0,3.0,89,0.00,,,0.07,TxWx,2013-09-02 18:07:00,
2013-09-02 14:12:00,71.0,67.0,29.54,South,180,1.0,1.0,88,0.00,,,0.07,TxWx,2013-09-02 18:12:00,
2013-09-02 14:17:00,71.0,67.0,29.54,SW,225,3.0,3.0,88,0.00,,,0.07,TxWx,2013-09-02 18:17:00,
2013-09-02 14:22:00,72.0,68.0,29.54,South,180,1.0,2.0,87,0.00,,,0.07,TxWx,2013-09-02 18:22:00,
2013-09-02 14:27:00,71.0,66.0,29.54,South,180,1.0,1.0,86,0.00,,,0.07,TxWx,2013-09-02 18:27:00,
2013-09-02 14:32:00,72.0,68.0,29.54,WSW,247,2.0,3.0,86,0.00,,,0.07,TxWx,2013-09-02 18:32:00,
2013-09-02 14:37:00,72.0,67.0,29.54,South,180,3.0,5.0,86,0.00,,,0.07,TxWx,2013-09-02 18:37:00,
2013-09-02 14:42:00,72.0,67.0,29.54,WSW,247,2.0,3.0,86,0.00,,,0.07,TxWx,2013-09-02 18:42:00,
2013-09-02 14:47:00,72.0,67.0,29.54,SSW,202,1.0,2.0,86,0.00,,,0.07,TxWx,2013-09-02 18:47:00,
2013-09-02 14:52:00,73.0,68.0,29.53,SE,135,2.0,2.0,86,0.00,,,0.07,TxWx,2013-09-02 18:52:00,
2013-09-02 14:57:00,73.0,68.0,29.53,South,180,0.0,1.0,85,0.00,,,0.07,TxWx,2013-09-02 18:57:00,
2013-09-02 14:59:00,59.0,59.0,29.54,South,180,0.0,0.0,99,0.00,,,0.37,TxWx,2013-09-02 18:59:00,
2013-09-02 15:00:00,59.0,59.0,29.54,SSW,202,0.0,0.0,99,0.00,,,0.00,TxWx,2013-09-02 19:00:00,
2013-09-02 15:01:00,59.0,59.0,29.54,South,180,0.0,0.0,99,0.00,,,0.00,TxWx,2013-09-02 19:01:00,
2013-09-02 15:02:00,73.0,68.0,29.53,SSW,202,1.0,1.0,85,0.00,,,0.07,TxWx,2013-09-02 19:02:00,
2013-09-02 15:03:00,59.0,59.0,29.54,SSE,157,0.0,0.0,99,0.00,,,0.00,TxWx,2013-09-02 19:03:00,
2013-09-02 15:04:00,59.0,59.0,29.54,South,180,0.0,0.0,99,0.00,,,0.00,TxWx,2013-09-02 19:04:00,
2013-09-02 15:05:00,59.0,59.0,29.54,South,180,0.0,0.0,99,0.00,,,0.00,TxWx,2013-09-02 19:05:00,
2013-09-02 15:06:00,59.0,59.0,29.54,South,180,0.0,0.0,99,0.00,,,0.00,TxWx,2013-09-02 19:06:00,
2013-09-02 15:07:00,73.0,68.0,29.53,ESE,112,2.0,5.0,85,0.00,,,0.07,TxWx,2013-09-02 19:07:00,
2013-09-02 15:08:00,59.0,59.0,29.54,South,180,0.0,0.0,99,0.00,,,0.00,TxWx,2013-09-02 19:08:00,
2013-09-02 15:09:00,59.0,59.0,29.54,SSW,202,0.0,0.0,99,0.00,,,0.00,TxWx,2013-09-02 19:09:00,
2013-09-02 15:10:00,59.0,59.0,29.54,SSW,202,0.0,0.0,99,0.00,,,0.00,TxWx,2013-09-02 19:10:00,
2013-09-02 15:11:00,59.0,59.0,29.54,SSW,202,0.0,0.0,99,0.00,,,0.00,TxWx,2013-09-02 19:11:00,
2013-09-02 15:12:00,59.0,59.0,29.54,SSW,202,0.0,0.0,99,0.00,,,0.00,TxWx,2013-09-02 19:12:00,
2013-09-02 15:13:00,73.0,67.0,29.53,ENE,67,2.0,3.0,83,0.00,,,0.07,TxWx,2013-09-02 19:13:00,
2013-09-02 15:14:00,59.0,59.0,29.54,SSW,202,0.0,0.0,99,0.00,,,0.00,TxWx,2013-09-02 19:14:00,
2013-09-02 15:15:00,59.0,59.0,29.54,SSW,202,0.0,0.0,99,0.00,,,0.00,TxWx,2013-09-02 19:15:00,
2013-09-02 15:16:00,59.0,59.0,29.53,South,180,0.0,0.0,99,0.00,,,0.00,TxWx,2013-09-02 19:16:00,
2013-09-02 15:17:00,59.0,59.0,29.53,South,180,0.0,0.0,99,0.00,,,0.00,TxWx,2013-09-02 19:17:00,
2013-09-02 15:18:00,73.0,68.0,29.52,SW,225,1.0,2.0,83,0.00,,,0.07,TxWx,2013-09-02 19:18:00,
2013-09-02 15:19:00,59.0,59.0,29.53,SSW,202,0.0,0.0,99,0.00,,,0.00,TxWx,2013-09-02 19:19:00,
2013-09-02 15:20:00,59.0,59.0,29.53,SW,225,0.0,0.0,99,0.00,,,0.00,TxWx,2013-09-02 19:20:00,
2013-09-02 15:21:00,59.0,59.0,29.54,SSW,202,0.0,0.0,99,0.00,,,0.00,TxWx,2013-09-02 19:21:00,
2013-09-02 15:22:00,59.0,59.0,29.53,SSW,202,0.0,0.0,99,0.00,,,0.00,TxWx,2013-09-02 19:22:00,
2013-09-02 15:23:00,74.0,68.0,29.52,South,180,3.0,4.0,83,0.00,,,0.07,TxWx,2013-09-02 19:23:00,
2013-09-02 15:24:00,59.0,59.0,29.53,SW,225,0.0,0.0,99,0.00,,,0.00,TxWx,2013-09-02 19:24:00,
2013-09-02 15:25:00,59.0,59.0,29.53,SW,225,0.0,0.0,99,0.00,,,0.00,TxWx,2013-09-02 19:25:00,
2013-09-02 15:26:00,59.0,59.0,29.54,SSW,202,0.0,0.0,99,0.00,,,0.00,TxWx,2013-09-02 19:26:00,
2013-09-02 15:27:00,59.0,59.0,29.53,SSW,202,0.0,0.0,99,0.00,,,0.00,TxWx,2013-09-02 19:27:00,
2013-09-02 15:28:00,74.0,68.0,29.52,SE,135,3.0,4.0,82,0.00,,,0.07,TxWx,2013-09-02 19:28:00,
2013-09-02 15:29:00,59.0,59.0,29.54,SW,225,0.0,0.0,99,0.00,,,0.00,TxWx,2013-09-02 19:29:00,
2013-09-02 15:30:00,59.0,59.0,29.54,SSW,202,0.0,0.0,99,0.00,,,0.00,TxWx,2013-09-02 19:30:00,
2013-09-02 15:31:00,59.0,59.0,29.54,SW,225,0.0,0.0,100,0.00,,,0.00,TxWx,2013-09-02 19:31:00,
2013-09-02 15:32:00,59.0,59.0,29.54,SW,225,0.0,0.0,100,0.00,,,0.00,TxWx,2013-09-02 19:32:00,
2013-09-02 15:33:00,73.0,67.0,29.52,SSE,157,3.0,3.0,82,0.00,,,0.07,TxWx,2013-09-02 19:33:00,
2013-09-02 15:34:00,59.0,59.0,29.54,WSW,247,0.0,0.0,100,0.00,,,0.00,TxWx,2013-09-02 19:34:00,
2013-09-02 15:37:00,59.0,59.0,29.55,WSW,247,0.0,0.0,100,0.00,,,0.00,TxWx,2013-09-02 19:37:00,
2013-09-02 15:38:00,74.0,68.0,29.52,South,180,1.0,2.0,83,0.00,,,0.07,TxWx,2013-09-02 19:38:00,
2013-09-02 15:40:00,59.0,59.0,29.54,SSW,202,0.0,0.0,100,0.00,,,0.00,TxWx,2013-09-02 19:40:00,
2013-09-02 15:43:00,73.0,67.0,29.52,South,180,1.0,1.0,82,0.00,,,0.07,TxWx,2013-09-02 19:43:00,
2013-09-02 15:45:00,59.0,59.0,29.55,SE,135,0.0,0.0,100,0.00,,,0.00,TxWx,2013-09-02 19:45:00,
2013-09-02 15:46:00,59.0,59.0,29.55,SSE,157,0.0,0.0,100,0.00,,,0.00,TxWx,2013-09-02 19:46:00,
2013-09-02 15:48:00,74.0,68.0,29.51,SSW,202,3.0,3.0,83,0.00,,,0.07,TxWx,2013-09-02 19:48:00,
2013-09-02 15:49:00,59.0,59.0,29.54,SSW,202,0.0,0.0,100,0.00,,,0.00,TxWx,2013-09-02 19:49:00,
2013-09-02 15:53:00,73.0,67.0,29.51,SSW,202,3.0,4.0,82,0.00,,,0.07,TxWx,2013-09-02 19:53:00,
2013-09-02 15:55:00,59.0,59.0,29.55,South,180,0.0,0.0,100,0.00,,,0.00,TxWx,2013-09-02 19:55:00,
2013-09-02 15:56:00,59.0,59.0,29.55,SSE,157,0.0,0.0,100,0.00,,,0.00,TxWx,2013-09-02 19:56:00,
2013-09-02 15:57:00,59.0,59.0,29.55,SSW,202,0.0,0.0,100,0.00,,,0.00,TxWx,2013-09-02 19:57:00,
2013-09-02 15:58:00,74.0,68.0,29.50,SSE,157,3.0,5.0,83,0.00,,,0.07,TxWx,2013-09-02 19:58:00,
2013-09-02 15:59:00,59.0,59.0,29.55,ESE,112,0.0,0.0,100,0.00,,,0.00,TxWx,2013-09-02 19:59:00,
2013-09-02 16:03:00,74.0,68.0,29.50,SE,135,4.0,5.0,81,0.00,,,0.07,TxWx,2013-09-02 20:03:00,
2013-09-02 16:08:00,75.0,69.0,29.50,South,180,1.0,1.0,82,0.00,,,0.07,TxWx,2013-09-02 20:08:00,
2013-09-02 16:13:00,75.0,69.0,29.50,SSW,202,1.0,1.0,81,0.00,,,0.07,TxWx,2013-09-02 20:13:00,
2013-09-02 16:18:00,74.0,67.0,29.50,SSE,157,1.0,1.0,80,0.00,,,0.07,TxWx,2013-09-02 20:18:00,
2013-09-02 16:23:00,74.0,68.0,29.50,South,180,1.0,1.0,81,0.00,,,0.07,TxWx,2013-09-02 20:23:00,
2013-09-02 16:28:00,74.0,68.0,29.49,SE,135,2.0,2.0,81,0.00,,,0.07,TxWx,2013-09-02 20:28:00,
2013-09-02 16:33:00,75.0,69.0,29.49,SSE,157,2.0,3.0,82,0.00,,,0.07,TxWx,2013-09-02 20:33:00,
2013-09-02 16:38:00,75.0,69.0,29.48,SW,225,2.0,3.0,82,0.00,,,0.07,TxWx,2013-09-02 20:38:00,
2013-09-02 16:43:00,75.0,68.0,29.48,SE,135,4.0,4.0,80,0.00,,,0.07,TxWx,2013-09-02 20:43:00,
2013-09-02 16:48:00,75.0,68.0,29.48,South,180,2.0,3.0,79,0.00,,,0.07,TxWx,2013-09-02 20:48:00,
2013-09-02 16:53:00,75.0,68.0,29.48,SSE,157,3.0,3.0,80,0.00,,,0.07,TxWx,2013-09-02 20:53:00,
2013-09-02 16:58:00,75.0,68.0,29.48,South,180,1.0,1.0,79,0.00,,,0.07,TxWx,2013-09-02 20:58:00,
2013-09-02 17:04:00,75.0,68.0,29.48,SSE,157,1.0,1.0,79,0.00,,,0.07,TxWx,2013-09-02 21:04:00,
2013-09-02 17:09:00,74.0,67.0,29.48,SSW,202,2.0,2.0,80,0.00,,,0.07,TxWx,2013-09-02 21:09:00,
2013-09-02 17:14:00,73.0,67.0,29.48,SSE,157,3.0,3.0,81,0.00,,,0.07,TxWx,2013-09-02 21:14:00,
2013-09-02 17:19:00,73.0,67.0,29.48,ESE,112,3.0,3.0,82,0.00,,,0.07,TxWx,2013-09-02 21:19:00,
2013-09-02 17:24:00,73.0,67.0,29.48,South,180,2.0,2.0,82,0.00,,,0.07,TxWx,2013-09-02 21:24:00,
2013-09-02 17:29:00,73.0,68.0,29.48,SSE,157,2.0,2.0,83,0.00,,,0.07,TxWx,2013-09-02 21:29:00,
2013-09-02 17:34:00,73.0,68.0,29.48,SSE,157,1.0,1.0,84,0.00,,,0.07,TxWx,2013-09-02 21:34:00,
2013-09-02 17:39:00,73.0,68.0,29.48,SSE,157,0.0,0.0,84,0.00,,,0.07,TxWx,2013-09-02 21:39:00,
2013-09-02 17:44:00,73.0,68.0,29.48,SSW,202,1.0,1.0,84,0.00,,,0.07,TxWx,2013-09-02 21:44:00,
2013-09-02 17:49:00,73.0,68.0,29.48,SSW,202,0.0,0.0,85,0.00,,,0.07,TxWx,2013-09-02 21:49:00,
2013-09-02 17:51:00,59.0,59.0,29.55,SSW,202,0.0,0.0,100,0.00,,,0.00,TxWx,2013-09-02 21:51:00,
2013-09-02 17:53:00,59.0,59.0,29.55,SSW,202,0.0,0.0,100,0.00,,,0.00,TxWx,2013-09-02 21:53:00,
2013-09-02 17:54:00,73.0,68.0,29.48,SSE,157,0.0,0.0,85,0.00,,,0.07,TxWx,2013-09-02 21:54:00,
2013-09-02 17:55:00,59.0,59.0,29.54,NW,315,3.0,3.0,100,0.00,,,0.00,TxWx,2013-09-02 21:55:00,
2013-09-02 17:56:00,59.0,59.0,29.54,NNW,337,3.0,3.0,100,0.00,,,0.00,TxWx,2013-09-02 21:56:00,
2013-09-02 17:57:00,59.0,59.0,29.54,West,270,2.0,3.0,100,0.00,,,0.00,TxWx,2013-09-02 21:57:00,
2013-09-02 17:58:00,59.0,59.0,29.54,SW,225,2.0,4.0,100,0.00,,,0.00,TxWx,2013-09-02 21:58:00,
2013-09-02 17:59:00,73.0,68.0,29.48,SSW,202,0.0,0.0,85,0.00,,,0.07,TxWx,2013-09-02 21:59:00,
2013-09-02 18:00:00,59.0,59.0,29.54,WNW,292,3.0,4.0,100,0.00,,,0.00,TxWx,2013-09-02 22:00:00,
2013-09-02 18:02:00,59.0,59.0,29.54,West,270,5.0,6.0,100,0.00,,,0.00,TxWx,2013-09-02 22:02:00,
2013-09-02 18:04:00,73.0,68.0,29.49,SW,225,0.0,0.0,85,0.00,,,0.07,TxWx,2013-09-02 22:04:00,
2013-09-02 18:05:00,59.0,59.0,29.54,West,270,5.0,5.0,100,0.00,,,0.00,TxWx,2013-09-02 22:05:00,
2013-09-02 18:07:00,59.0,59.0,29.54,WNW,292,3.0,5.0,100,0.00,,,0.00,TxWx,2013-09-02 22:07:00,
2013-09-02 18:09:00,72.0,67.0,29.49,SSW,202,0.0,0.0,85,0.00,,,0.07,TxWx,2013-09-02 22:09:00,
2013-09-02 18:10:00,59.0,59.0,29.54,NE,45,1.0,1.0,100,0.00,,,0.00,TxWx,2013-09-02 22:10:00,
2013-09-02 18:12:00,59.0,59.0,29.54,NW,315,3.0,3.0,100,0.00,,,0.00,TxWx,2013-09-02 22:12:00,
2013-09-02 18:13:00,59.0,59.0,29.54,SW,225,1.0,1.0,100,0.00,,,0.00,TxWx,2013-09-02 22:13:00,
2013-09-02 18:14:00,72.0,67.0,29.49,SSW,202,0.0,0.0,85,0.60,,,0.08,TxWx,2013-09-02 22:14:00,
2013-09-02 18:19:00,72.0,67.0,29.49,SSW,202,0.0,0.0,86,0.60,,,0.11,TxWx,2013-09-02 22:19:00,
2013-09-02 18:24:00,72.0,67.0,29.49,WSW,247,2.0,2.0,86,0.60,,,0.11,TxWx,2013-09-02 22:24:00,
2013-09-02 18:29:00,70.0,66.0,29.50,South,180,1.0,1.0,87,0.60,,,0.11,TxWx,2013-09-02 22:29:00,
2013-09-02 18:34:00,70.0,66.0,29.50,SW,225,2.0,2.0,88,0.00,,,0.11,TxWx,2013-09-02 22:34:00,
2013-09-02 18:39:00,69.0,66.0,29.51,SW,225,3.0,5.0,90,0.00,,,0.11,TxWx,2013-09-02 22:39:00,
2013-09-02 18:44:00,68.0,64.0,29.52,NNW,337,3.0,10.0,88,0.00,,,0.12,TxWx,2013-09-02 22:44:00,
2013-09-02 18:49:00,66.0,61.0,29.52,SSW,202,9.0,16.0,85,0.00,,,0.19,TxWx,2013-09-02 22:49:00,
2013-09-02 18:54:00,64.0,60.0,29.52,WSW,247,5.0,5.0,87,0.60,,,0.20,TxWx,2013-09-02 22:54:00,
2013-09-02 18:59:00,63.0,60.0,29.54,SW,225,5.0,7.0,89,0.60,,,0.22,TxWx,2013-09-02 22:59:00,
2013-09-02 19:04:00,62.0,59.0,29.54,SSW,202,4.0,4.0,90,0.60,,,0.23,TxWx,2013-09-02 23:04:00,
2013-09-02 19:09:00,62.0,59.0,29.54,WSW,247,1.0,3.0,91,0.60,,,0.23,TxWx,2013-09-02 23:09:00,
2013-09-02 19:15:00,62.0,59.0,29.55,SSW,202,3.0,3.0,92,0.60,,,0.24,TxWx,2013-09-02 23:15:00,
2013-09-02 19:20:00,61.0,59.0,29.55,ESE,112,1.0,1.0,92,0.60,,,0.25,TxWx,2013-09-02 23:20:00,
2013-09-02 19:25:00,61.0,59.0,29.55,ESE,112,1.0,2.0,93,0.60,,,0.27,TxWx,2013-09-02 23:25:00,
2013-09-02 19:30:00,61.0,59.0,29.55,WSW,247,1.0,1.0,93,0.60,,,0.29,TxWx,2013-09-02 23:30:00,
2013-09-02 19:35:00,61.0,59.0,29.54,NNE,22,3.0,3.0,93,0.60,,,0.32,TxWx,2013-09-02 23:35:00,
2013-09-02 19:40:00,61.0,59.0,29.53,ENE,67,4.0,5.0,94,0.60,,,0.33,TxWx,2013-09-02 23:40:00,
2013-09-02 19:45:00,61.0,60.0,29.51,ESE,112,6.0,8.0,95,0.60,,,0.35,TxWx,2013-09-02 23:45:00,
2013-09-02 19:50:00,61.0,60.0,29.52,SSE,157,2.0,3.0,96,0.60,,,0.36,TxWx,2013-09-02 23:50:00,
2013-09-02 19:55:00,61.0,60.0,29.52,SSE,157,2.0,3.0,96,0.60,,,0.36,TxWx,2013-09-02 23:55:00,
2013-09-02 20:00:00,60.0,59.0,29.51,NNW,337,1.0,1.0,96,0.60,,,0.37,TxWx,2013-09-03 00:00:00,
2013-09-02 20:05:00,60.0,59.0,29.51,ESE,112,3.0,4.0,96,0.60,,,0.37,TxWx,2013-09-03 00:05:00,
2013-09-02 20:10:00,60.0,59.0,29.51,SSE,157,1.0,3.0,96,0.60,,,0.37,TxWx,2013-09-03 00:10:00,
2013-09-02 20:15:00,60.0,59.0,29.51,ENE,67,1.0,1.0,96,0.00,,,0.37,TxWx,2013-09-03 00:15:00,
2013-09-02 20:20:00,60.0,59.0,29.52,NNW,337,1.0,2.0,97,0.00,,,0.37,TxWx,2013-09-03 00:20:00,
2013-09-02 20:25:00,60.0,59.0,29.52,South,180,0.0,0.0,97,0.00,,,0.37,TxWx,2013-09-03 00:25:00,
2013-09-02 20:30:00,60.0,59.0,29.52,South,180,0.0,0.0,97,0.00,,,0.37,TxWx,2013-09-03 00:30:00,
2013-09-02 20:35:00,60.0,59.0,29.51,SSW,202,0.0,0.0,97,0.00,,,0.37,TxWx,2013-09-03 00:35:00,
2013-09-02 20:40:00,60.0,59.0,29.51,South,180,0.0,0.0,97,0.00,,,0.37,TxWx,2013-09-03 00:40:00,
2013-09-02 20:45:00,60.0,59.0,29.50,SW,225,0.0,0.0,97,0.00,,,0.37,TxWx,2013-09-03 00:45:00,
2013-09-02 20:50:00,60.0,59.0,29.50,WSW,247,2.0,3.0,97,0.00,,,0.37,TxWx,2013-09-03 00:50:00,
2013-09-02 20:56:00,60.0,59.0,29.50,SSW,202,0.0,1.0,97,0.00,,,0.37,TxWx,2013-09-03 00:56:00,
2013-09-02 21:01:00,60.0,59.0,29.50,WSW,247,0.0,0.0,97,0.00,,,0.37,TxWx,2013-09-03 01:01:00,
2013-09-02 21:06:00,60.0,59.0,29.50,SSW,202,0.0,0.0,97,0.00,,,0.37,TxWx,2013-09-03 01:06:00,
2013-09-02 21:11:00,60.0,59.0,29.50,SSW,202,0.0,0.0,97,0.00,,,0.37,TxWx,2013-09-03 01:11:00,
2013-09-02 21:16:00,60.0,59.0,29.50,SSW,202,0.0,0.0,97,0.00,,,0.37,TxWx,2013-09-03 01:16:00,
2013-09-02 21:21:00,60.0,59.0,29.51,SW,225,0.0,1.0,98,0.00,,,0.37,TxWx,2013-09-03 01:21:00,
2013-09-02 21:26:00,60.0,59.0,29.51,SSW,202,0.0,0.0,98,0.00,,,0.37,TxWx,2013-09-03 01:26:00,
2013-09-02 21:31:00,60.0,59.0,29.51,SW,225,0.0,0.0,98,0.00,,,0.37,TxWx,2013-09-03 01:31:00,
2013-09-02 21:36:00,60.0,59.0,29.52,SSW,202,0.0,0.0,98,0.00,,,0.37,TxWx,2013-09-03 01:36:00,
2013-09-02 21:41:00,60.0,59.0,29.52,SSW,202,0.0,0.0,98,0.00,,,0.37,TxWx,2013-09-03 01:41:00,
2013-09-02 21:46:00,59.0,58.0,29.52,SSE,157,0.0,0.0,98,0.00,,,0.37,TxWx,2013-09-03 01:46:00,
2013-09-02 21:51:00,59.0,58.0,29.53,SSE,157,0.0,0.0,98,0.00,,,0.37,TxWx,2013-09-03 01:51:00,
2013-09-02 21:56:00,59.0,58.0,29.53,SSE,157,0.0,0.0,98,0.00,,,0.37,TxWx,2013-09-03 01:56:00,
2013-09-02 22:01:00,59.0,58.0,29.53,South,180,1.0,1.0,98,0.00,,,0.37,TxWx,2013-09-03 02:01:00,
2013-09-02 22:06:00,59.0,58.0,29.52,ESE,112,0.0,0.0,98,0.00,,,0.37,TxWx,2013-09-03 02:06:00,
2013-09-02 22:11:00,59.0,58.0,29.52,South,180,0.0,0.0,98,0.00,,,0.37,TxWx,2013-09-03 02:11:00,
2013-09-02 22:16:00,59.0,58.0,29.53,SSE,157,0.0,0.0,98,0.00,,,0.37,TxWx,2013-09-03 02:16:00,
2013-09-02 22:21:00,59.0,58.0,29.53,SSW,202,0.0,0.0,98,0.00,,,0.37,TxWx,2013-09-03 02:21:00,
2013-09-02 22:26:00,59.0,58.0,29.53,SW,225,0.0,0.0,98,0.00,,,0.37,TxWx,2013-09-03 02:26:00,
2013-09-02 22:32:00,59.0,59.0,29.53,SSW,202,0.0,0.0,99,0.00,,,0.37,TxWx,2013-09-03 02:32:00,
2013-09-02 22:37:00,59.0,59.0,29.53,SSW,202,0.0,0.0,99,0.00,,,0.37,TxWx,2013-09-03 02:37:00,
2013-09-02 22:42:00,59.0,59.0,29.53,SSW,202,0.0,0.0,99,0.00,,,0.37,TxWx,2013-09-03 02:42:00,
2013-09-02 22:47:00,59.0,59.0,29.53,SW,225,0.0,0.0,99,0.00,,,0.37,TxWx,2013-09-03 02:47:00,
2013-09-02 22:52:00,59.0,59.0,29.53,SSW,202,0.0,0.0,99,0.00,,,0.37,TxWx,2013-09-03 02:52:00,
2013-09-02 22:57:00,59.0,59.0,29.53,SE,135,0.0,0.0,99,0.00,,,0.37,TxWx,2013-09-03 02:57:00,
2013-09-02 23:02:00,59.0,59.0,29.53,SSE,157,0.0,0.0,99,0.00,,,0.37,TxWx,2013-09-03 03:02:00,
2013-09-02 23:07:00,59.0,59.0,29.53,WSW,247,0.0,0.0,99,0.00,,,0.37,TxWx,2013-09-03 03:07:00,
2013-09-02 23:12:00,59.0,59.0,29.53,WSW,247,0.0,0.0,99,0.00,,,0.37,TxWx,2013-09-03 03:12:00,
2013-09-02 23:15:00,58.0,58.0,29.58,SSW,202,0.0,0.0,100,0.00,,,0.00,TxWx,2013-09-03 03:15:00,
2013-09-02 23:17:00,59.0,59.0,29.53,SSW,202,0.0,0.0,99,0.00,,,0.37,TxWx,2013-09-03 03:17:00,
2013-09-02 23:18:00,58.0,58.0,29.58,SSW,202,0.0,1.0,100,0.00,,,0.00,TxWx,2013-09-03 03:18:00,
2013-09-02 23:20:00,58.0,58.0,29.58,WSW,247,0.0,0.0,100,0.00,,,0.00,TxWx,2013-09-03 03:20:00,
2013-09-02 23:22:00,58.0,58.0,29.58,SW,225,1.0,1.0,100,0.00,,,0.00,TxWx,2013-09-03 03:22:00,
2013-09-02 23:23:00,59.0,59.0,29.53,SSE,157,0.0,0.0,99,0.00,,,0.37,TxWx,2013-09-03 03:23:00,
2013-09-02 23:27:00,59.0,59.0,29.58,WSW,247,1.0,2.0,100,0.00,,,0.00,TxWx,2013-09-03 03:27:00,
2013-09-02 23:28:00,59.0,59.0,29.53,SSE,157,0.0,0.0,99,0.00,,,0.37,TxWx,2013-09-03 03:28:00,
2013-09-02 23:29:00,59.0,59.0,29.58,WSW,247,1.0,1.0,100,0.00,,,0.00,TxWx,2013-09-03 03:29:00,
2013-09-02 23:31:00,59.0,59.0,29.58,South,180,0.0,0.0,100,0.00,,,0.00,TxWx,2013-09-03 03:31:00,
2013-09-02 23:33:00,59.0,59.0,29.53,South,180,0.0,0.0,99,0.00,,,0.37,TxWx,2013-09-03 03:33:00,
2013-09-02 23:34:00,59.0,59.0,29.58,South,180,0.0,1.0,100,0.00,,,0.01,TxWx,2013-09-03 03:34:00,
2013-09-02 23:35:00,59.0,59.0,29.58,WSW,247,0.0,0.0,100,0.00,,,0.01,TxWx,2013-09-03 03:35:00,
2013-09-02 23:36:00,59.0,59.0,29.59,West,270,0.0,0.0,100,0.00,,,0.01,TxWx,2013-09-03 03:36:00,
2013-09-02 23:37:00,59.0,59.0,29.58,SSW,202,0.0,0.0,100,0.00,,,0.01,TxWx,2013-09-03 03:37:00,
2013-09-02 23:38:00,59.0,59.0,29.53,SSE,157,0.0,0.0,99,0.00,,,0.37,TxWx,2013-09-03 03:38:00,
2013-09-02 23:43:00,59.0,59.0,29.53,South,180,0.0,0.0,99,0.00,,,0.37,TxWx,2013-09-03 03:43:00,
2013-09-02 23:48:00,59.0,59.0,29.53,SW,225,0.0,0.0,99,0.00,,,0.37,TxWx,2013-09-03 03:48:00,
2013-09-02 23:53:00,59.0,59.0,29.53,WNW,292,0.0,0.0,99,0.00,,,0.37,TxWx,2013-09-03 03:53:00,
2013-09-02 23:58:00,59.0,59.0,29.53,SSW,202,0.0,0.0,99,0.00,,,0.37,TxWx,2013-09-03 03:58:00,